Regional Weather Roundup
Issued by NWS

Home | Current Version | Previous Version | Graphics & Text | Print | Product List | Glossary On
Versions: 1 2 3 4 5 6 7 8 9 10 11 12 13 14 15 16 17 18 19 20 21 22 23 24 25 26 27 28 29 30 31 32 33 34 35 36 37 38 39 40 41 42 43 44 45 46
000
ASUS45 KCYS 011210
RWRWY

WYOMING REGIONAL WEATHER ROUNDUP
NATIONAL WEATHER SERVICE CHEYENNE WY
600 AM MDT WED OCT 01 2014

NOTE:  "FAIR" INDICATES FEW OR NO CLOUDS BELOW 12,000 FEET
WITH NO SIGNIFICANT WEATHER AND/OR OBSTRUCTIONS TO VISIBILITY.

WYZ001-011300-
YELLOWSTONE NATIONAL PARK

CITY           SKY/WX    TMP DP  RH WIND       PRES   REMARKS
LK YELLOWSTONE   N/A     31  28  89 NW5       29.99R WCI  26
6HR MIN TEMP:  31; 6HR MAX TEMP:  33; 6HR PCP:  0.02;

W YELLOWSTONE  NOT AVBL

$$
WYZ002>013-054>058-071-098>099-011300-
NORTHERN WYOMING

CITY           SKY/WX    TMP DP  RH WIND       PRES   REMARKS
JACKSON        CLOUDY    37  36  93 SW6       29.96R WCI  33
CODY           CLOUDY    43  43 100 CALM      29.90R
GREYBULL       CLOUDY    50  41  71 NW10      29.86R
6HR MIN TEMP:  49; 6HR MAX TEMP:  51; 6HR PCP:  0.01;

WORLAND        LGT RAIN  46  43  89 SW6       29.88R
6HR MIN TEMP:  46; 6HR MAX TEMP:  51; 6HR PCP:  0.16;

SHERIDAN       CLOUDY    48  41  76 NW14      29.88R
6HR MIN TEMP:  47; 6HR MAX TEMP:  51; 6HR PCP: TRACE;

BUFFALO        LGT RAIN  43  40  89 N13G25    29.89R
6HR MIN TEMP:  43; 6HR MAX TEMP:  50; 6HR PCP:  0.02;

GILLETTE       MOCLDY    46  42  86 NW12      29.85R
6HR MIN TEMP:  45; 6HR MAX TEMP:  49; 6HR PCP:  0.01;

HULETT         CLOUDY    48  45  87 W6        29.83
NEWCASTLE      PTSUNNY   46  45  93 CALM      29.85

$$
WYZ014>020-022>026-101>103-011300-
CENTRAL WYOMING

CITY           SKY/WX    TMP DP  RH WIND       PRES   REMARKS
BIG PINEY      CLEAR     29  24  82 N6        29.97S WCI  23
6HR MIN TEMP:  27; 6HR MAX TEMP:  36;

PINEDALE       MOSUNNY   30  30 100 N6        29.98R WCI  24
DUBOIS         CLOUDY    36  27  69 W16       29.91S WCI  26
LANDER         MOCLDY    42  36  79 CALM      29.91R
6HR MIN TEMP:  41; 6HR MAX TEMP:  50;

RIVERTON       CLOUDY    42  37  82 N12       29.91R
6HR MIN TEMP:  41; 6HR MAX TEMP:  50;

CASPER         LGT RAIN  47  43  86 E7        29.88R FOG
6HR MIN TEMP:  46; 6HR MAX TEMP:  50; 6HR PCP:  0.03;

DOUGLAS        LGT RAIN  49  42  77 CALM      29.89R
6HR MIN TEMP:  45; 6HR MAX TEMP:  49; 6HR PCP: TRACE;


$$
WYZ021-027>030-104>119-011300-
SOUTHERN WYOMING

CITY           SKY/WX    TMP DP  RH WIND       PRES   REMARKS
EVANSTON       MOCLDY    35  32  88 NW8       30.00R WCI  29
6HR MIN TEMP:  35; 6HR MAX TEMP:  40;

KEMMERER       MOSUNNY   32  30  93 SW6       29.99R WCI  26
FORT BRIDGER   CLOUDY    37  37  99 W5        30.01S WCI  33
ROCK SPRINGS   CLOUDY    35  32  88 W6        29.96S WCI  30
6HR MIN TEMP:  35; 6HR MAX TEMP:  42;

DIXON          CLOUDY    41  39  95 NE3       29.99S
RAWLINS        PTCLDY    37  35  92 W14       29.95R WCI  28
6HR MIN TEMP:  37; 6HR MAX TEMP:  43;

SARATOGA       FAIR      39  34  81 CALM      29.96S
LARAMIE        MOCLDY    40  33  76 SW12      29.94R WCI  33
6HR MIN TEMP:  39; 6HR MAX TEMP:  44;

CHEYENNE       CLOUDY    49  36  61 NW8       29.90F
6HR MIN TEMP:  44; 6HR MAX TEMP:  50;

TORRINGTON     PTCLDY    44  41  89 CALM      29.85R
6HR MIN TEMP:  44; 6HR MAX TEMP:  54;

PINE BLUFFS    CLOUDY    41  37  87 CALM      29.90R

$$



USA.gov is the U.S. government's official web portal to all federal, state and local government web resources and services.